| time (UTC) | temp F | wind direction | speed MPH | gust MPH | rain 1hr in | rain 24hr in | rain mn in | humidity % | barometer mb |
| 20260508122204 | 58 | 196 | 2.0 | 6.0 | 0.00 | 0.00 | 0.00 | 71 | 1000.0 |
| 20260508121703 | 57 | 197 | 2.0 | 5.0 | 0.00 | 0.00 | 0.00 | 71 | 1000.0 |
| 20260508121204 | 57 | 221 | 5.0 | 7.0 | 0.00 | 0.00 | 0.00 | 71 | 1000.0 |
| 20260508120704 | 57 | 175 | 4.0 | 7.0 | 0.00 | 0.00 | 0.00 | 70 | 1000.0 |
| 20260508115204 | 56 | 176 | 5.0 | 6.0 | 0.00 | 0.00 | 0.00 | 72 | 1000.0 |
| 20260508114703 | 56 | 173 | 6.0 | 9.0 | 0.00 | 0.00 | 0.00 | 72 | 1000.0 |
| 20260508113703 | 55 | 168 | 4.0 | 6.0 | 0.00 | 0.00 | 0.00 | 75 | 1000.0 |
| 20260508113203 | 54 | 180 | 5.0 | 7.0 | 0.00 | 0.00 | 0.00 | 76 | 1000.0 |
| 20260508112704 | 54 | 172 | 5.0 | 8.0 | 0.00 | 0.00 | 0.00 | 76 | 1000.0 |
| 20260508112204 | 54 | 170 | 5.0 | 7.0 | 0.00 | 0.00 | 0.00 | 76 | 1000.0 |
| 20260508111703 | 54 | 172 | 5.0 | 7.0 | 0.00 | 0.00 | 0.00 | 76 | 1000.0 |
| 20260508110204 | 53 | 167 | 5.0 | 7.0 | 0.00 | 0.00 | 0.00 | 78 | 1000.0 |
| 20260508105204 | 53 | 172 | 5.0 | 7.0 | 0.00 | 0.00 | 0.00 | 78 | 1000.0 |
| 20260508104703 | 53 | 153 | 6.0 | 7.0 | 0.00 | 0.00 | 0.00 | 78 | 1000.0 |
| 20260508104203 | 53 | 157 | 6.0 | 7.0 | 0.00 | 0.00 | 0.00 | 77 | 1000.0 |
| 20260508103703 | 53 | 166 | 6.0 | 8.0 | 0.00 | 0.00 | 0.00 | 77 | 1000.0 |
| 20260508103203 | 53 | 167 | 5.0 | 7.0 | 0.00 | 0.00 | 0.00 | 77 | 1000.0 |
| 20260508102703 | 53 | 173 | 5.0 | 7.0 | 0.00 | 0.00 | 0.00 | 76 | 1000.0 |
| 20260508102203 | 54 | 198 | 3.0 | 5.0 | 0.00 | 0.00 | 0.00 | 76 | 1000.0 |
| 20260508101704 | 54 | 202 | 4.0 | 7.0 | 0.00 | 0.00 | 0.00 | 76 | 1000.0 |
| 20260508100703 | 54 | 185 | 5.0 | 9.0 | 0.00 | 0.00 | 0.00 | 75 | 1000.0 |
| 20260508100203 | 54 | 202 | 6.0 | 8.0 | 0.00 | 0.00 | 0.00 | 74 | 1000.0 |
| 20260508095704 | 54 | 202 | 5.0 | 7.0 | 0.00 | 0.00 | 0.00 | 75 | 1000.0 |
| 20260508095204 | 54 | 192 | 5.0 | 8.0 | 0.00 | 0.00 | 0.00 | 76 | 1000.0 |
| 20260508094203 | 54 | 184 | 6.0 | 8.0 | 0.00 | 0.00 | 0.00 | 76 | 1000.0 |
| 20260508092704 | 54 | 179 | 6.0 | 7.0 | 0.00 | 0.00 | 0.00 | 76 | 1000.0 |
| 20260508092204 | 54 | 203 | 5.0 | 7.0 | 0.00 | 0.00 | 0.00 | 76 | 1000.0 |
| 20260508091703 | 53 | 179 | 5.0 | 7.0 | 0.00 | 0.00 | 0.00 | 78 | 1000.0 |
| 20260508091204 | 53 | 180 | 6.0 | 8.0 | 0.00 | 0.00 | 0.00 | 79 | 1000.0 |
| 20260508090704 | 54 | 168 | 6.0 | 8.0 | 0.00 | 0.00 | 0.00 | 77 | 1000.0 |
| 20260508090204 | 54 | 173 | 6.0 | 7.0 | 0.00 | 0.00 | 0.00 | 76 | 1000.0 |
| 20260508085204 | 55 | 163 | 5.0 | 7.0 | 0.00 | 0.00 | 0.00 | 73 | 1000.0 |
| 20260508084704 | 56 | 188 | 3.0 | 6.0 | 0.00 | 0.00 | 0.00 | 71 | 1000.0 |
| 20260508084204 | 56 | 199 | 4.0 | 7.0 | 0.00 | 0.00 | 0.00 | 71 | 1000.0 |
| 20260508083704 | 56 | 207 | 4.0 | 7.0 | 0.00 | 0.00 | 0.00 | 72 | 1000.0 |
| 20260508083203 | 55 | 203 | 3.0 | 8.0 | 0.00 | 0.00 | 0.00 | 74 | 1000.0 |
| 20260508082703 | 55 | 202 | 4.0 | 7.0 | 0.00 | 0.00 | 0.00 | 75 | 1000.0 |
| 20260508082204 | 55 | 187 | 5.0 | 6.0 | 0.00 | 0.00 | 0.00 | 73 | 1000.0 |
| 20260508081704 | 56 | 208 | 4.0 | 7.0 | 0.00 | 0.00 | 0.00 | 70 | 1000.0 |
| 20260508081203 | 56 | 216 | 3.0 | 7.0 | 0.00 | 0.00 | 0.00 | 70 | 1000.0 |
| 20260508080704 | 56 | 208 | 3.0 | 5.0 | 0.00 | 0.00 | 0.00 | 70 | 1000.0 |
| 20260508080204 | 56 | 204 | 4.0 | 8.0 | 0.00 | 0.00 | 0.00 | 70 | 1000.0 |
| 20260508075703 | 56 | 206 | 4.0 | 6.0 | 0.00 | 0.00 | 0.00 | 69 | 1000.0 |
| 20260508075204 | 57 | 213 | 5.0 | 8.0 | 0.00 | 0.00 | 0.00 | 68 | 1000.0 |
| 20260508074704 | 57 | 215 | 5.0 | 7.0 | 0.00 | 0.00 | 0.00 | 68 | 1000.0 |
| 20260508074203 | 57 | 211 | 5.0 | 6.0 | 0.00 | 0.00 | 0.00 | 68 | 1000.0 |
| 20260508073704 | 57 | 217 | 4.0 | 6.0 | 0.00 | 0.00 | 0.00 | 68 | 1000.0 |
| 20260508073204 | 57 | 216 | 3.0 | 7.0 | 0.00 | 0.00 | 0.00 | 68 | 1000.0 |
| 20260508072703 | 57 | 211 | 5.0 | 7.0 | 0.00 | 0.00 | 0.00 | 68 | 1000.0 |
| 20260508072204 | 57 | 214 | 5.0 | 7.0 | 0.00 | 0.00 | 0.00 | 68 | 1000.0 |
| 20260508071203 | 56 | 213 | 5.0 | 7.0 | 0.00 | 0.00 | 0.00 | 69 | 1000.0 |
| 20260508070704 | 56 | 202 | 5.0 | 7.0 | 0.00 | 0.00 | 0.00 | 70 | 1000.0 |
| 20260508070204 | 55 | 203 | 5.0 | 7.0 | 0.00 | 0.00 | 0.00 | 72 | 1000.0 |
| 20260508065703 | 55 | 204 | 5.0 | 7.0 | 0.00 | 0.00 | 0.00 | 73 | 1000.0 |
| 20260508065203 | 54 | 179 | 5.0 | 7.0 | 0.00 | 0.00 | 0.00 | 74 | 1000.0 |
| 20260508064703 | 54 | 178 | 5.0 | 6.0 | 0.00 | 0.00 | 0.00 | 74 | 1000.0 |
| 20260508063703 | 54 | 170 | 5.0 | 6.0 | 0.00 | 0.00 | 0.00 | 74 | 1000.0 |
| 20260508063203 | 55 | 172 | 5.0 | 7.0 | 0.00 | 0.00 | 0.00 | 73 | 1000.0 |
| 20260508062704 | 55 | 165 | 5.0 | 6.0 | 0.00 | 0.00 | 0.00 | 72 | 1000.0 |
| 20260508061704 | 56 | 177 | 3.0 | 5.0 | 0.00 | 0.00 | 0.00 | 71 | 1000.0 |
| 20260508061203 | 56 | 177 | 3.0 | 5.0 | 0.00 | 0.00 | 0.00 | 70 | 1000.0 |
| 20260508060703 | 57 | 184 | 2.0 | 5.0 | 0.00 | 0.00 | 0.00 | 69 | 1000.0 |
| 20260508060203 | 57 | 196 | 2.0 | 5.0 | 0.00 | 0.00 | 0.00 | 68 | 1000.0 |
| 20260508055703 | 57 | 198 | 3.0 | 5.0 | 0.00 | 0.00 | 0.00 | 67 | 1000.0 |
| 20260508055203 | 57 | 190 | 2.0 | 3.0 | 0.00 | 0.00 | 0.00 | 67 | 1000.0 |
| 20260508054704 | 58 | 199 | 2.0 | 3.0 | 0.00 | 0.00 | 0.00 | 66 | 1000.0 |
| 20260508053703 | 58 | 207 | 2.0 | 3.0 | 0.00 | 0.00 | 0.00 | 66 | 1000.0 |
| 20260508052704 | 58 | 201 | 3.0 | 3.0 | 0.00 | 0.00 | 0.00 | 65 | 1000.0 |
| 20260508052204 | 59 | 219 | 2.0 | 3.0 | 0.00 | 0.00 | 0.00 | 65 | 1000.0 |
| 20260508051704 | 59 | 217 | 2.0 | 3.0 | 0.00 | 0.00 | 0.00 | 65 | 1000.0 |
| 20260508050703 | 59 | 212 | 3.0 | 5.0 | 0.00 | 0.00 | 0.00 | 64 | 1000.0 |
| 20260508050203 | 59 | 199 | 3.0 | 5.0 | 0.00 | 0.00 | 0.00 | 64 | 1000.0 |
| 20260508045204 | 59 | 185 | 4.0 | 7.0 | 0.00 | 0.00 | 0.00 | 64 | 1000.0 |
| 20260508044703 | 59 | 194 | 5.0 | 8.0 | 0.00 | 0.00 | 0.00 | 64 | 1000.0 |
| 20260508044204 | 59 | 178 | 5.0 | 9.0 | 0.00 | 0.00 | 0.00 | 63 | 1000.0 |
| 20260508043704 | 59 | 193 | 6.0 | 10.0 | 0.00 | 0.00 | 0.00 | 62 | 1000.0 |
| 20260508043203 | 59 | 199 | 7.0 | 12.0 | 0.00 | 0.00 | 0.00 | 62 | 1000.0 |
| 20260508042703 | 59 | 197 | 7.0 | 10.0 | 0.00 | 0.00 | 0.00 | 62 | 1000.0 |
| 20260508042203 | 59 | 198 | 6.0 | 10.0 | 0.00 | 0.00 | 0.00 | 62 | 1000.0 |
| 20260508041703 | 59 | 198 | 7.0 | 9.0 | 0.00 | 0.00 | 0.00 | 62 | 1000.0 |
| 20260508041204 | 60 | 206 | 7.0 | 10.0 | 0.00 | 0.00 | 0.00 | 61 | 1000.0 |
| 20260508040703 | 60 | 197 | 7.0 | 12.0 | 0.00 | 0.00 | 0.00 | 61 | 1000.0 |
| 20260508040203 | 60 | 198 | 9.0 | 12.0 | 0.00 | 0.00 | 0.00 | 60 | 1000.0 |
| 20260508035704 | 60 | 193 | 7.0 | 12.0 | 0.00 | 0.00 | 0.00 | 60 | 1000.0 |
| 20260508034703 | 60 | 194 | 7.0 | 12.0 | 0.00 | 0.00 | 0.00 | 60 | 1000.0 |
| 20260508034203 | 60 | 205 | 7.0 | 9.0 | 0.00 | 0.00 | 0.00 | 60 | 1000.0 |
| 20260508033704 | 60 | 197 | 6.0 | 9.0 | 0.00 | 0.00 | 0.00 | 60 | 1000.0 |
| 20260508033203 | 60 | 203 | 7.0 | 9.0 | 0.00 | 0.00 | 0.00 | 60 | 1000.0 |
| 20260508032703 | 61 | 207 | 6.0 | 8.0 | 0.00 | 0.00 | 0.00 | 60 | 1000.0 |
| 20260508032203 | 61 | 194 | 5.0 | 7.0 | 0.00 | 0.00 | 0.00 | 59 | 1000.0 |
| 20260508031704 | 61 | 206 | 5.0 | 8.0 | 0.00 | 0.00 | 0.00 | 58 | 1000.0 |
| 20260508031204 | 61 | 205 | 5.0 | 8.0 | 0.00 | 0.00 | 0.00 | 58 | 1000.0 |
| 20260508030704 | 61 | 207 | 6.0 | 8.0 | 0.00 | 0.00 | 0.00 | 58 | 1000.0 |
| 20260508025703 | 62 | 202 | 6.0 | 9.0 | 0.00 | 0.00 | 0.00 | 57 | 1000.0 |
| 20260508025203 | 62 | 197 | 6.0 | 8.0 | 0.00 | 0.00 | 0.00 | 57 | 1000.0 |
| 20260508024703 | 62 | 203 | 6.0 | 9.0 | 0.00 | 0.00 | 0.00 | 57 | 1000.0 |
| 20260508024204 | 62 | 202 | 7.0 | 9.0 | 0.00 | 0.00 | 0.00 | 57 | 1000.0 |
| 20260508023704 | 61 | 198 | 6.0 | 8.0 | 0.00 | 0.00 | 0.00 | 57 | 1000.0 |
| 20260508023204 | 61 | 192 | 6.0 | 8.0 | 0.00 | 0.00 | 0.00 | 57 | 1000.0 |
| 20260508022704 | 62 | 199 | 5.0 | 7.0 | 0.00 | 0.00 | 0.00 | 57 | 1000.0 |
| 20260508022204 | 62 | 194 | 4.0 | 6.0 | 0.00 | 0.00 | 0.00 | 57 | 1000.0 |
| 20260508021703 | 62 | 187 | 3.0 | 6.0 | 0.00 | 0.00 | 0.00 | 56 | 1000.0 |
| 20260508021204 | 63 | 200 | 3.0 | 5.0 | 0.00 | 0.00 | 0.00 | 55 | 1000.0 |
| 20260508020704 | 63 | 214 | 3.0 | 5.0 | 0.00 | 0.00 | 0.00 | 55 | 1000.0 |
| 20260508020204 | 63 | 213 | 5.0 | 7.0 | 0.00 | 0.00 | 0.00 | 54 | 1000.0 |
| 20260508015204 | 63 | 209 | 5.0 | 7.0 | 0.00 | 0.00 | 0.00 | 53 | 1000.0 |
| 20260508014704 | 64 | 196 | 6.0 | 8.0 | 0.00 | 0.00 | 0.00 | 53 | 1000.0 |
| 20260508014204 | 64 | 203 | 5.0 | 7.0 | 0.00 | 0.00 | 0.00 | 53 | 1000.0 |
| 20260508013703 | 64 | 208 | 6.0 | 9.0 | 0.00 | 0.00 | 0.00 | 53 | 1000.0 |
| 20260508012704 | 64 | 214 | 6.0 | 8.0 | 0.00 | 0.00 | 0.00 | 52 | 1000.0 |
| 20260508012203 | 64 | 207 | 6.0 | 8.0 | 0.00 | 0.00 | 0.00 | 51 | 1000.0 |
| 20260508011703 | 64 | 212 | 6.0 | 8.0 | 0.00 | 0.00 | 0.00 | 51 | 1000.0 |
| 20260508011203 | 65 | 205 | 4.0 | 8.0 | 0.00 | 0.00 | 0.00 | 51 | 1000.0 |
| 20260508010704 | 65 | 206 | 6.0 | 8.0 | 0.00 | 0.00 | 0.00 | 50 | 1000.0 |
| 20260508010203 | 65 | 217 | 6.0 | 8.0 | 0.00 | 0.00 | 0.00 | 50 | 1000.0 |
| 20260508005704 | 65 | 214 | 6.0 | 8.0 | 0.00 | 0.00 | 0.00 | 50 | 1000.0 |
| 20260508005205 | 66 | 222 | 5.0 | 9.0 | 0.00 | 0.00 | 0.00 | 50 | 1000.0 |
| 20260508004204 | 66 | 215 | 5.0 | 9.0 | 0.00 | 0.00 | 0.00 | 49 | 1000.0 |
| 20260508003204 | 66 | 209 | 6.0 | 10.0 | 0.00 | 0.00 | 0.00 | 48 | 1000.0 |
| 20260508002703 | 66 | 213 | 9.0 | 13.0 | 0.00 | 0.00 | 0.00 | 47 | 1000.0 |
| 20260508001704 | 67 | 207 | 7.0 | 12.0 | 0.00 | 0.00 | 0.00 | 46 | 1000.0 |
| 20260508001203 | 67 | 207 | 9.0 | 12.0 | 0.00 | 0.00 | 0.00 | 46 | 1000.0 |
| 20260508000703 | 67 | 219 | 8.0 | 13.0 | 0.00 | 0.00 | 0.00 | 46 | 1000.0 |
| 20260508000205 | 67 | 222 | 9.0 | 16.0 | 0.00 | 0.00 | 0.00 | 46 | 1000.0 |
| 20260507235704 | 67 | 215 | 8.0 | 14.0 | 0.00 | 0.00 | 0.00 | 46 | 1000.0 |
| 20260507234704 | 67 | 212 | 9.0 | 10.0 | 0.00 | 0.00 | 0.00 | 45 | 1000.0 |
| 20260507234203 | 67 | 208 | 10.0 | 15.0 | 0.00 | 0.00 | 0.00 | 45 | 1000.0 |
| 20260507233704 | 67 | 217 | 10.0 | 17.0 | 0.00 | 0.00 | 0.00 | 44 | 1000.0 |
| 20260507233204 | 68 | 234 | 6.0 | 9.0 | 0.00 | 0.00 | 0.00 | 44 | 1000.0 |
| 20260507232704 | 68 | 224 | 7.0 | 10.0 | 0.00 | 0.00 | 0.00 | 45 | 1000.0 |
| 20260507232203 | 68 | 231 | 7.0 | 13.0 | 0.00 | 0.00 | 0.00 | 44 | 1000.0 |
| 20260507231703 | 67 | 216 | 12.0 | 17.0 | 0.00 | 0.00 | 0.00 | 44 | 1000.0 |
| 20260507231203 | 67 | 206 | 12.0 | 18.0 | 0.00 | 0.00 | 0.00 | 43 | 1000.0 |
| 20260507230703 | 68 | 210 | 10.0 | 15.0 | 0.00 | 0.00 | 0.00 | 43 | 1000.0 |
| 20260507225704 | 68 | 210 | 10.0 | 17.0 | 0.00 | 0.00 | 0.00 | 42 | 1000.0 |
| 20260507225204 | 68 | 233 | 9.0 | 15.0 | 0.00 | 0.00 | 0.00 | 43 | 1000.0 |
| 20260507224705 | 68 | 224 | 10.0 | 18.0 | 0.00 | 0.00 | 0.00 | 42 | 1000.0 |
| 20260507224204 | 68 | 221 | 10.0 | 16.0 | 0.00 | 0.00 | 0.00 | 43 | 1000.0 |
| 20260507223704 | 68 | 231 | 9.0 | 13.0 | 0.00 | 0.00 | 0.00 | 41 | 1000.0 |
| 20260507223204 | 68 | 228 | 9.0 | 15.0 | 0.00 | 0.00 | 0.00 | 42 | 1000.0 |
| 20260507222703 | 69 | 243 | 6.0 | 12.0 | 0.00 | 0.00 | 0.00 | 43 | 1000.0 |
| 20260507222204 | 68 | 238 | 9.0 | 13.0 | 0.00 | 0.00 | 0.00 | 42 | 1000.0 |
| 20260507221704 | 68 | 232 | 9.0 | 14.0 | 0.00 | 0.00 | 0.00 | 43 | 1000.0 |
| 20260507220203 | 68 | 223 | 6.0 | 14.0 | 0.00 | 0.00 | 0.00 | 43 | 1000.0 |
| 20260507215704 | 68 | 229 | 9.0 | 15.0 | 0.00 | 0.00 | 0.00 | 41 | 1000.0 |
| 20260507215204 | 68 | 233 | 8.0 | 16.0 | 0.00 | 0.00 | 0.00 | 43 | 1000.0 |
| 20260507214204 | 68 | 240 | 9.0 | 16.0 | 0.00 | 0.00 | 0.00 | 42 | 1000.0 |
| 20260507213704 | 68 | 238 | 7.0 | 13.0 | 0.00 | 0.00 | 0.00 | 40 | 1000.0 |
| 20260507212703 | 69 | 278 | 5.0 | 15.0 | 0.00 | 0.00 | 0.00 | 40 | 1000.0 |
| 20260507212203 | 69 | 259 | 8.0 | 17.0 | 0.00 | 0.00 | 0.00 | 40 | 1000.0 |
| 20260507211703 | 68 | 233 | 10.0 | 15.0 | 0.00 | 0.00 | 0.00 | 41 | 1000.0 |
| 20260507211203 | 68 | 225 | 12.0 | 17.0 | 0.00 | 0.00 | 0.00 | 40 | 1000.0 |
| 20260507210703 | 69 | 222 | 7.0 | 12.0 | 0.00 | 0.00 | 0.00 | 41 | 1000.0 |
| 20260507210203 | 68 | 270 | 6.0 | 12.0 | 0.00 | 0.00 | 0.00 | 42 | 1000.0 |
| 20260507205704 | 68 | 230 | 7.0 | 12.0 | 0.00 | 0.00 | 0.00 | 42 | 1000.0 |
| 20260507205206 | 68 | 228 | 9.0 | 16.0 | 0.00 | 0.00 | 0.00 | 40 | 1000.0 |
| 20260507204728 | 68 | 213 | 10.0 | 21.0 | 0.00 | 0.00 | 0.00 | 42 | 1000.0 |
| 20260507204204 | 68 | 245 | 11.0 | 16.0 | 0.00 | 0.00 | 0.00 | 40 | 1000.0 |
| 20260507203704 | 68 | 225 | 8.0 | 16.0 | 0.00 | 0.00 | 0.00 | 40 | 1000.0 |
| 20260507203204 | 68 | 218 | 8.0 | 18.0 | 0.00 | 0.00 | 0.00 | 42 | 1000.0 |
| 20260507202703 | 67 | 221 | 9.0 | 14.0 | 0.00 | 0.00 | 0.00 | 41 | 1000.0 |
| 20260507202203 | 68 | 219 | 9.0 | 15.0 | 0.00 | 0.00 | 0.00 | 39 | 1000.0 |
| 20260507201704 | 68 | 282 | 7.0 | 15.0 | 0.00 | 0.00 | 0.00 | 40 | 1000.0 |
| 20260507201204 | 68 | 227 | 7.0 | 15.0 | 0.00 | 0.00 | 0.00 | 41 | 1000.0 |
| 20260507200703 | 67 | 225 | 13.0 | 18.0 | 0.00 | 0.00 | 0.00 | 39 | 1000.0 |
| 20260507200203 | 68 | 266 | 5.0 | 14.0 | 0.00 | 0.00 | 0.00 | 42 | 1000.0 |
| 20260507195704 | 67 | 228 | 6.0 | 12.0 | 0.00 | 0.00 | 0.00 | 42 | 1000.0 |
| 20260507195204 | 67 | 222 | 7.0 | 15.0 | 0.00 | 0.00 | 0.00 | 41 | 1000.0 |
| 20260507194704 | 67 | 265 | 8.0 | 14.0 | 0.00 | 0.00 | 0.00 | 40 | 1000.0 |
| 20260507193704 | 66 | 230 | 9.0 | 15.0 | 0.00 | 0.00 | 0.00 | 40 | 1000.0 |
| 20260507193204 | 68 | 246 | 7.0 | 14.0 | 0.00 | 0.00 | 0.00 | 40 | 1000.0 |
| 20260507192703 | 67 | 217 | 12.0 | 16.0 | 0.00 | 0.00 | 0.00 | 40 | 1000.0 |
| 20260507192203 | 68 | 237 | 5.0 | 20.0 | 0.00 | 0.00 | 0.00 | 39 | 1000.0 |
| 20260507191704 | 68 | 226 | 6.0 | 13.0 | 0.00 | 0.00 | 0.00 | 42 | 1000.0 |
| 20260507190703 | 67 | 236 | 11.0 | 18.0 | 0.00 | 0.00 | 0.00 | 38 | 1000.0 |
| 20260507185703 | 67 | 254 | 9.0 | 16.0 | 0.00 | 0.00 | 0.00 | 38 | 1000.0 |
| 20260507185204 | 67 | 237 | 9.0 | 14.0 | 0.00 | 0.00 | 0.00 | 41 | 1000.0 |
| 20260507184704 | 67 | 267 | 5.0 | 10.0 | 0.00 | 0.00 | 0.00 | 39 | 1000.0 |
| 20260507183704 | 66 | 228 | 10.0 | 15.0 | 0.00 | 0.00 | 0.00 | 40 | 1000.0 |
| 20260507183204 | 66 | 235 | 6.0 | 12.0 | 0.00 | 0.00 | 0.00 | 40 | 1000.0 |
| 20260507182704 | 65 | 234 | 8.0 | 17.0 | 0.00 | 0.00 | 0.00 | 39 | 1000.0 |
| 20260507182203 | 65 | 222 | 9.0 | 20.0 | 0.00 | 0.00 | 0.00 | 40 | 1000.0 |
| 20260507181704 | 66 | 238 | 9.0 | 16.0 | 0.00 | 0.00 | 0.00 | 40 | 1000.0 |
| 20260507180204 | 66 | 232 | 10.0 | 15.0 | 0.00 | 0.00 | 0.00 | 39 | 1000.0 |
| 20260507175703 | 66 | 228 | 7.0 | 14.0 | 0.00 | 0.00 | 0.00 | 40 | 1000.0 |
| 20260507175204 | 66 | 251 | 6.0 | 14.0 | 0.00 | 0.00 | 0.00 | 41 | 1000.0 |
| 20260507174704 | 65 | 229 | 7.0 | 14.0 | 0.00 | 0.00 | 0.00 | 38 | 1000.0 |
| 20260507173704 | 64 | 218 | 12.0 | 17.0 | 0.00 | 0.00 | 0.00 | 39 | 1000.0 |
| 20260507173204 | 65 | 226 | 7.0 | 16.0 | 0.00 | 0.00 | 0.00 | 42 | 1000.0 |
| 20260507172704 | 64 | 236 | 9.0 | 15.0 | 0.00 | 0.00 | 0.00 | 42 | 1000.0 |
| 20260507172203 | 64 | 222 | 9.0 | 14.0 | 0.00 | 0.00 | 0.00 | 42 | 1000.0 |
| 20260507171703 | 64 | 224 | 8.0 | 16.0 | 0.00 | 0.00 | 0.00 | 40 | 1000.0 |
| 20260507171204 | 64 | 218 | 7.0 | 17.0 | 0.00 | 0.00 | 0.00 | 44 | 1000.0 |
| 20260507170703 | 63 | 229 | 8.0 | 13.0 | 0.00 | 0.00 | 0.00 | 39 | 1000.0 |
| 20260507170203 | 63 | 229 | 10.0 | 16.0 | 0.00 | 0.00 | 0.00 | 42 | 1000.0 |
| 20260507165704 | 63 | 223 | 9.0 | 14.0 | 0.00 | 0.00 | 0.00 | 42 | 1000.0 |
| 20260507165203 | 64 | 240 | 9.0 | 16.0 | 0.00 | 0.00 | 0.00 | 42 | 1000.0 |
| 20260507164703 | 63 | 216 | 7.0 | 15.0 | 0.00 | 0.00 | 0.00 | 43 | 1000.0 |
| 20260507164204 | 63 | 213 | 7.0 | 13.0 | 0.00 | 0.00 | 0.00 | 41 | 1000.0 |
| 20260507162704 | 63 | 289 | 6.0 | 13.0 | 0.00 | 0.00 | 0.00 | 43 | 1000.0 |
| 20260507162203 | 62 | 223 | 9.0 | 15.0 | 0.00 | 0.00 | 0.00 | 44 | 1000.0 |
| 20260507161703 | 62 | 208 | 10.0 | 14.0 | 0.00 | 0.00 | 0.00 | 42 | 1000.0 |
| 20260507161204 | 62 | 227 | 7.0 | 16.0 | 0.00 | 0.00 | 0.00 | 44 | 1000.0 |
| 20260507160703 | 62 | 223 | 6.0 | 15.0 | 0.00 | 0.00 | 0.00 | 48 | 1000.0 |
| 20260507160203 | 62 | 239 | 5.0 | 13.0 | 0.00 | 0.00 | 0.00 | 49 | 1000.0 |
| 20260507155704 | 61 | 225 | 7.0 | 13.0 | 0.00 | 0.00 | 0.00 | 48 | 1000.0 |
| 20260507155203 | 61 | 217 | 7.0 | 13.0 | 0.00 | 0.00 | 0.00 | 50 | 1000.0 |
| 20260507154703 | 61 | 225 | 7.0 | 12.0 | 0.00 | 0.00 | 0.00 | 49 | 1000.0 |
| 20260507153704 | 61 | 220 | 4.0 | 10.0 | 0.00 | 0.00 | 0.00 | 50 | 1000.0 |
| 20260507153203 | 61 | 265 | 5.0 | 13.0 | 0.00 | 0.00 | 0.00 | 52 | 1000.0 |
| 20260507152703 | 60 | 220 | 7.0 | 12.0 | 0.00 | 0.00 | 0.00 | 49 | 1000.0 |
| 20260507152204 | 60 | 240 | 7.0 | 12.0 | 0.00 | 0.00 | 0.00 | 50 | 1000.0 |
| 20260507151703 | 59 | 226 | 9.0 | 14.0 | 0.00 | 0.00 | 0.00 | 47 | 1000.0 |
| 20260507151203 | 60 | 214 | 6.0 | 13.0 | 0.00 | 0.00 | 0.00 | 47 | 1000.0 |
| 20260507150703 | 59 | 242 | 7.0 | 15.0 | 0.00 | 0.00 | 0.00 | 48 | 1000.0 |
| 20260507150203 | 59 | 226 | 9.0 | 15.0 | 0.00 | 0.00 | 0.00 | 46 | 1000.0 |
| 20260507145204 | 59 | 224 | 7.0 | 14.0 | 0.00 | 0.00 | 0.00 | 50 | 1000.0 |
| 20260507144204 | 57 | 221 | 10.0 | 15.0 | 0.00 | 0.00 | 0.00 | 48 | 1000.0 |
| 20260507143703 | 57 | 219 | 9.0 | 15.0 | 0.00 | 0.00 | 0.00 | 52 | 1000.0 |
| 20260507143203 | 57 | 225 | 9.0 | 13.0 | 0.00 | 0.00 | 0.00 | 52 | 1000.0 |
| 20260507142703 | 57 | 219 | 6.0 | 12.0 | 0.00 | 0.00 | 0.00 | 55 | 1000.0 |
| 20260507142203 | 57 | 217 | 5.0 | 10.0 | 0.00 | 0.00 | 0.00 | 58 | 1000.0 |
| 20260507141704 | 56 | 216 | 7.0 | 10.0 | 0.00 | 0.00 | 0.00 | 58 | 1000.0 |
| 20260507141204 | 56 | 219 | 6.0 | 9.0 | 0.00 | 0.00 | 0.00 | 60 | 1000.0 |
| 20260507140704 | 55 | 228 | 6.0 | 9.0 | 0.00 | 0.00 | 0.00 | 60 | 1000.0 |
| 20260507140203 | 55 | 224 | 7.0 | 12.0 | 0.00 | 0.00 | 0.00 | 60 | 1000.0 |
| 20260507135703 | 55 | 230 | 6.0 | 8.0 | 0.00 | 0.00 | 0.00 | 60 | 1000.0 |
| 20260507135204 | 54 | 215 | 5.0 | 9.0 | 0.00 | 0.00 | 0.00 | 64 | 1000.0 |
| 20260507134704 | 54 | 207 | 5.0 | 8.0 | 0.00 | 0.00 | 0.00 | 64 | 1000.0 |
| 20260507134203 | 53 | 217 | 6.0 | 9.0 | 0.00 | 0.00 | 0.00 | 65 | 1000.0 |
| 20260507133704 | 53 | 217 | 6.0 | 8.0 | 0.00 | 0.00 | 0.00 | 64 | 1000.0 |
| 20260507133204 | 53 | 212 | 5.0 | 8.0 | 0.00 | 0.00 | 0.00 | 66 | 1000.0 |
| 20260507132704 | 52 | 225 | 6.0 | 9.0 | 0.00 | 0.00 | 0.00 | 65 | 1000.0 |
| 20260507132203 | 52 | 218 | 6.0 | 9.0 | 0.00 | 0.00 | 0.00 | 65 | 1000.0 |
| 20260507131704 | 51 | 202 | 6.0 | 8.0 | 0.00 | 0.00 | 0.00 | 66 | 1000.0 |
| 20260507131203 | 51 | 210 | 5.0 | 8.0 | 0.00 | 0.00 | 0.00 | 69 | 1000.0 |
| 20260507130704 | 50 | 224 | 7.0 | 9.0 | 0.00 | 0.00 | 0.00 | 66 | 1000.0 |
| 20260507130203 | 51 | 212 | 6.0 | 7.0 | 0.00 | 0.00 | 0.00 | 69 | 1000.0 |
| 20260507125704 | 50 | 219 | 6.0 | 9.0 | 0.00 | 0.00 | 0.00 | 68 | 1000.0 |
| 20260507125203 | 50 | 220 | 5.0 | 7.0 | 0.00 | 0.00 | 0.00 | 70 | 1000.0 |
| 20260507124704 | 49 | 220 | 4.0 | 6.0 | 0.00 | 0.00 | 0.00 | 73 | 1000.0 |
| 20260507124203 | 49 | 227 | 5.0 | 6.0 | 0.00 | 0.00 | 0.00 | 74 | 1000.0 |
| 20260507123704 | 48 | 228 | 4.0 | 7.0 | 0.00 | 0.00 | 0.00 | 74 | 1000.0 |
| 20260507123204 | 48 | 251 | 4.0 | 7.0 | 0.00 | 0.00 | 0.00 | 74 | 1000.0 |
| 20260507122705 | 47 | 219 | 6.0 | 8.0 | 0.00 | 0.00 | 0.00 | 72 | 1000.0 |